Regional Weather Roundup
Issued by NWS

Home | Current Version | Previous Version | Graphics & Text | Print | Product List | Glossary On
Versions: 1 2 3 4 5 6 7 8 9 10 11 12 13 14 15 16 17 18 19 20 21 22 23 24 25 26 27 28 29 30 31 32 33 34 35 36 37 38 39 40 41 42 43 44 45 46 47 48 49 50
000
ASUS43 KMPX 251301
RWRMN
WEATHER ROUNDUP FOR MINNESOTA
NATIONAL WEATHER SERVICE TWIN CITIES/CHANHASSEN MN
800 AM CDT SAT APR 25 2015


NOTE: "FAIR" INDICATES FEW OR NO CLOUDS BELOW 12,000 FEET WITH NO
SIGNIFICANT WEATHER AND/OR OBSTRUCTIONS TO VISIBILITY. N/A MEANS
CURRENT SKY AND/OR WEATHER CONDITIONS ARE NOT AVAILABLE.

MNZ060>063-068>070-251400-
   Twin Cities Metro

CITY           SKY/WX    TMP DP  RH WIND       PRES   REMARKS
TWIN CITIES    CLOUDY    43  37  79 E10       29.83R
ST PAUL        CLOUDY    43  37  79 E8        29.85R
CRYSTAL        CLOUDY    44  36  73 E9        29.84R
BLAINE         CLOUDY    45  37  76 E9        29.85R
LAKEVILLE      CLOUDY    39  37  93 E12       29.82R
EDEN PRAIRIE   CLOUDY    43  37  79 E12       29.82R
SOUTH ST PAUL  CLOUDY    43  36  75 E5        29.84R
LAKE ELMO      CLOUDY    43  36  75 E8        29.85R
$$
MNZ001>005-007-008-013>017-022>024-027-028-251400-
   Northwest Minnesota

CITY           SKY/WX    TMP DP  RH WIND       PRES   REMARKS
BEMIDJI        CLOUDY    39  27  63 E13       29.89R
HALLOCK        CLOUDY    43  30  61 E10       29.90S
ROSEAU         CLOUDY    41  27  56 E8        29.93R
WARROAD        CLOUDY    37  28  70 E6        29.95R
THIEF RVR FALL PTSUNNY   41  27  56 E13       29.89S
CROOKSTON      CLOUDY    43  30  61 E9        29.89R
FOSSTON        CLOUDY    39  27  60 E8        29.88R
DETROIT LAKES  CLOUDY    41  34  75 E10G18    29.85S
MOORHEAD       CLOUDY    43  36  75 E9        29.85S
PARK RAPIDS    PTSUNNY   40  30  67 E10       29.86R
MAHNOMEN       CLOUDY    41  32  71 SE8       29.85S
$$
MNZ006-009>011-018-025>026-251400-
   North Central Minnesota

CITY           SKY/WX    TMP DP  RH WIND       PRES   REMARKS
BAUDETTE       MOSUNNY   39  21  48 E12       29.94S
FLAG ISLAND    CLOUDY    39  25  56 E7        29.96R
INTL FALLS     CLOUDY    38  18  44 E7        29.97S
WASKISH        CLOUDY    37  23  56 E7        29.93S
BIG FORK       CLOUDY    37  19  48 E6        29.94S
LONGVILLE      CLOUDY    37  27  65 E8        29.90R
GRAND RAPIDS   CLOUDY    37  21  52 E3        29.92S
CRANE LAKE     CLOUDY    36  12  38 CALM      30.00F
ORR            CLOUDY    36  14  41 CALM      29.95R
COOK           CLOUDY    37  18  44 E7        29.97R
WALKER         CLOUDY    38  28  67 E7        29.88S
$$
MNZ012-019>021-037-251400-
   Northeast Minnesota

CITY           SKY/WX    TMP DP  RH WIND       PRES   REMARKS
DULUTH         CLOUDY    34  24  67 E10       29.93S WCI  26
ELY            CLOUDY    36   7  30 E8        29.99R
HIBBING        CLOUDY    38  20  48 SE7       29.94R
EVELETH        PTSUNNY   36  21  55 E7        29.96R
DULUTH HARBOR  CLOUDY    36  30  80 NE28G33   29.97S
TWO HARBORS    CLOUDY    37  25  60 NE14      29.96S
SILVER BAY     CLOUDY    36  25  64 NE12G18   29.98S
GRAND MARAIS     N/A     37  18  46 NE9       30.04S
G MARAIS ARPRT CLOUDY    30   7  37 NE9       30.00S WCI  22
$$
MNZ029>031-032-039>041-046>048-054>057-064-251400-
   West Central Minnesota

CITY           SKY/WX    TMP DP  RH WIND       PRES   REMARKS
FERGUS FALLS   CLOUDY    43  36  75 E7        29.84R
WHEATON        CLOUDY    39  39 100 E10       29.82R FOG
MORRIS         PTSUNNY   43  41  93 E14       29.79R FOG
ALEXANDRIA     CLOUDY    40  37  89 E14       29.82R
ELBOW LAKE     CLOUDY    41  39  94 E14G20    29.81S
WADENA         PTSUNNY   39  32  75 E10       29.84S
GLENWOOD       CLOUDY    41  39  93 E16       29.81R FOG
APPLETON       PTSUNNY   45  41  87 E13       29.79R
BENSON         CLOUDY    43  39  87 SE10G16   29.79R
ORTONVILLE     CLOUDY    43  39  87 E12       29.79R
MADISON        CLOUDY    45  41  87 E12       29.77R FOG
WILLMAR        FAIR      43  41  93 E13G22    29.81R
$$
MNZ033>034-036-042>043-049>051-058-059-251400-
   Central Minnesota

CITY           SKY/WX    TMP DP  RH WIND       PRES   REMARKS
ST CLOUD       CLOUDY    43  36  76 E12G18    29.84R
SAUK CENTRE    CLOUDY    41  37  88 E12G17    29.83R
PAYNESVILLE    CLOUDY    39  37  93 NE12      29.82R
AITKIN         CLOUDY    37  30  75 E8        29.89R
PINE RIVER     CLOUDY    39  30  70 E10       29.91S
BRAINERD       CLOUDY    39  31  72 E8        29.88R
STAPLES        CLOUDY    39  32  75 E7        29.85S
LONG PRAIRIE   CLOUDY    37  34  87 NE8       29.84R
LITTLE FALLS   PTSUNNY   39  32  75 E8        29.86R
LITCHFIELD     CLOUDY    45  41  87 E12       29.82R
BUFFALO        CLOUDY    43  37  78 E14       29.84S
MAPLE LAKE     CLOUDY    44  39  84 E14       29.84S
$$
MNZ037-044-045-052-053-251400-
   East Central Minnesota

CITY           SKY/WX    TMP DP  RH WIND       PRES   REMARKS
PRINCETON      CLOUDY    45  36  70 E8        29.86R
MORA           PTSUNNY   39  32  75 E9G16     29.90R
CAMBRIDGE      CLOUDY    45  34  65 E7        29.85S
RUSH CITY      PTSUNNY   43  34  69 E8        29.89R
MOOSE LAKE     MOSUNNY   34  30  86 NE8       29.91R WCI  27
HINCKLEY       CLOUDY    39  32  75 NE6       29.90R
CLOQUET        CLOUDY    36  27  69 E7        29.93R
MCGREGOR       CLOUDY    36  32  87 E10G16    29.91S
$$
MNZ071>073-080-081-089-090-097-098-251400-
   Southwest Minnesota

CITY           SKY/WX    TMP DP  RH WIND       PRES   REMARKS
MONTEVIDEO     CLOUDY    43  43 100 SE17      29.79R FOG
GRANITE FALLS  CLOUDY    43  38  84 E12       29.79R
CANBY          CLOUDY    43  40  90 E13       29.78R
MARSHALL       CLOUDY    43  36  75 E15       29.75R
REDWOOD FALLS  CLOUDY    44  38  79 E14G24    29.77R
OLIVIA         CLOUDY    41  36  81 E13G23    29.79R
PIPESTONE      CLOUDY    43  39  87 E16       29.70R
WINDOM         CLOUDY    43  37  81 E16       29.74R
WORTHINGTON    CLOUDY    43  36  75 E17       29.73R
JACKSON        CLOUDY    43  36  75 E15G21    29.74R HAZE
TRACY          CLOUDY    44  39  85 E15       29.76R
SLAYTON        CLOUDY    41  40  94 E16G22    29.74R
$$
MNZ065>067-074>077-082>085-091>093-251400-
   South Central Minnesota

CITY           SKY/WX    TMP DP  RH WIND       PRES   REMARKS
MANKATO        CLOUDY    43  34  70 E14G21    29.78R
NEW ULM        CLOUDY    43  37  81 E10G17    29.78R
ST JAMES       CLOUDY    45  37  76 E15       29.78R
FAIRMONT       CLOUDY    43  12  28 E15       29.74R
GLENCOE        CLOUDY    44  40  85 E13G18    29.80R
FARIBAULT      CLOUDY    43  37  81 E10G20    29.80R
OWATONNA       PTSUNNY   43  37  81 E15G24    29.78R
WASECA         CLOUDY    43  37  81 E17G23    29.78R
ALBERT LEA     CLOUDY    43  37  81 E14G22    29.75S
$$
MNZ078>079-086>088-094>096-251400-
   Southeast Minnesota

CITY           SKY/WX    TMP DP  RH WIND       PRES   REMARKS
ROCHESTER      CLOUDY    41  36  82 E14       29.79S
RED WING       CLOUDY    43  36  75 E13       29.82F
STANTON        CLOUDY    43  37  80 E13       29.80R
DODGE CENTER   CLOUDY    41  37  87 E16       29.78S
AUSTIN         CLOUDY    41  36  81 E15       29.75F
PRESTON        CLOUDY    39  35  83 E14       29.78F
$$
ABBREVIATIONS USED IN REMARKS
   TC - TEMPERATURES IN CELSIUS
  WCI - WIND CHILL INDEX
   HX - HEAT INDEX
  VSB - VISIBILITY
$$


USA.gov is the U.S. government's official web portal to all federal, state and local government web resources and services.